Regional Weather Roundup
Issued by NWS State College, PA

Home | Current Version | Previous Version | Graphics & Text | Print | Product List | Glossary On
Versions: 1 2 3 4 5 6 7 8 9 10 11 12 13 14 15 16 17 18 19 20 21 22 23 24 25 26 27 28 29 30 31 32 33 34 35 36 37 38 39 40 41 42 43 44 45 46 47 48 49 50
000
ASUS41 KCTP 041603
RWRCTP

REGIONAL WEATHER ROUNDUP
NATIONAL WEATHER SERVICE STATE COLLEGE PA
1100 AM EST WED MAR 04 2015

Note: "fair" indicates few or no clouds below 12,000 feet with no
significant weather and/or obstructions to visibility.

* = STATION THAT DOES NOT REPORT PRECIPITATION /E.G. RAIN...SNOW...ETC/
    THUNDER OR FOG.

PAZ002>004-007>009-013>016-020>023-029>032-041700-
WESTERN PENNSYLVANIA

CITY           SKY/WX    TMP DP  RH WIND       PRES   REMARKS
ERIE           CLOUDY    33  22  63 W9        29.94S
MEADVILLE        N/A     31  25  78 W7        29.90S
FRANKLIN*      CLOUDY    34  27  75 W9        29.91R
NEW CASTLE     CLOUDY    34  32  93 CALM      29.94R
BEAVER COUNTY  FOG       32  32 100 NW5       29.91F VSB 1/2
BUTLER*        CLOUDY    34  32  93 W8        29.93R
PITTSBURGH INT CLOUDY    34  33  96 W5        29.91R
PITTSBURGH     CLOUDY    34  31  88 NW5       29.89S FOG
INDIANA*       CLOUDY    34  34 100 W7        29.94R
LATROBE        NOT AVBL
WASHINGTON CO* CLOUDY    36  34  93 W5        29.92F
$$

PAZ004>006-010>012-017>019-024>028-033>037-041-042-045-046-049>053-041700-
CENTRAL PENNSYLVANIA

CITY           SKY/WX    TMP DP  RH WIND       PRES   REMARKS
BRADFORD       CLOUDY    31  26  82 W8        29.83F
DUBOIS         FOG       32  32 100 W9        29.86S VSB 1/2
CLEARFIELD     CLOUDY    35  32  88 W9G17     29.86S
JOHNSTOWN      FOG       36  35  96 W7        29.83S VSB 1/2
ALTOONA        CLOUDY    39  36  89 S9        29.84F
STATE COLLEGE  CLOUDY    37  32  81 W7        29.85F
WILLIAMSPORT   CLOUDY    33  30  88 E6        29.87F FOG
SELINSGROVE    CLOUDY    36  34  92 CALM      29.89F FOG
FT INDIANTOWN  CLOUDY    34  32  93 NE2       29.88F FOG
CAPITAL CITY   NOT AVBL
HARRISBURG     NOT AVBL
YORK           CLOUDY    43  40  89 CALM      29.87S FOG
$$

PAZ038>040-043-044-047-048-054-055-060>062-067>071-041700-
EASTERN PENNSYLVANIA

CITY           SKY/WX    TMP DP  RH WIND       PRES   REMARKS
SCRANTON       CLOUDY    37  33  85 SW8       29.86F FOG
MOUNT POCONO   CLOUDY    36  32  85 W16       29.81R
ALLENTOWN      LGT RAIN  37  33  85 SW8       29.89F FOG
QUAKERTOWN*    CLOUDY    37  37 100 CALM      29.90S VSB 1
READING        FOG       37  35  92 N3        29.88S VSB 1
LANCASTER      FOG       35  34  96 NE3       29.88S VSB 1
COATESVILLE    MIX PCPN  37  37 100 SW7       29.89S
POTTSTOWN      CLOUDY    37  37 100 NE3       29.91R FOG
BLUE BELL      CLOUDY    37  37 100 CALM      29.88R
DOYLESTOWN     CLOUDY    36  36 100 CALM      29.89R FOG
WILLOW GROVE   NOT AVBL
NORTH PHILA    LGT RAIN  40  36  86 CALM      29.91F FOG
PHILADELPHIA   CLOUDY    39  37  92 SW8       29.91R FOG
$$


USA.gov is the U.S. government's official web portal to all federal, state and local government web resources and services.